Location: Winnipeg
(49.8830°N, 97.1670°W)
Time: 20:40:26
(UTC-06:00)

Envisat - Pass Details

Date: 05 December 2022
Orbit: 763 x 765 km, 98.2° (Epoch: 28 January)

Event Time Altitude Azimuth Distance (km) Brightness Sun altitude
Rises 03:45:29 0° 23° (NNE) 3,245 6.7 -41.4°
Reaches altitude 10° 03:48:13 10° 37° (NE) 2,313 5.9 -41.0°
Enters shadow 03:49:04 14° 44° (NE) 2,061 5.7 -40.9°
